FW1597 Weather Reports


Display with metric or nautical units.
time (UTC)temp
F
wind
direction
speed
MPH
gust
MPH
rain 1hr
in
rain 24hr
in
rain mn
in
humidity
%
barometer
mb
20260508163017 56 104 1.0 6.0 0.00 1.31 0.01 76 1000.9
20260508161523 54 98 1.0 4.0 0.00 1.31 0.01 79 1000.9
20260508160008 51 75 1.0 4.0 0.00 1.31 0.01 83 1001.0
20260508154503 50 24 2.0 8.0 0.00 1.33 0.01 85 1001.4
20260508153103 50 18 1.0 5.0 0.00 1.33 0.01 89 1001.3
20260508151559 49 14 2.0 5.0 0.00 1.33 0.01 91 1001.5
20260508150122 49 323 2.0 6.0 0.00 1.33 0.01 93 1001.4
20260508144601 48 48 2.0 6.0 0.00 1.33 0.01 94 1001.4
20260508143051 48 68 3.0 9.0 0.00 1.33 0.01 94 1001.5
20260508141557 47 22 2.0 6.0 0.00 1.33 0.01 94 1001.6
20260508140054 46 355 2.0 8.0 0.00 1.33 0.01 94 1001.6
20260508134545 46 59 2.0 5.0 0.00 1.33 0.01 94 1001.9
20260508123038 44 50 2.0 6.0 0.00 1.33 0.01 94 1002.0
20260508121536 44 327 1.0 4.0 0.00 1.33 0.01 95 1001.9
20260508120034 44 23 2.0 4.0 0.00 1.33 0.01 94 1001.7
20260508114535 44 51 1.0 5.0 0.00 1.34 0.01 94 1002.1
20260508113045 44 14 0.0 5.0 0.00 1.34 0.01 95 1002.1
20260508111529 44 124 1.0 6.0 0.00 1.34 0.01 94 1002.3
20260508110028 44 77 2.0 7.0 0.00 1.34 0.01 94 1002.1
20260508104532 44 59 1.0 6.0 0.00 1.35 0.01 94 1001.9
20260508103026 44 49 1.0 4.0 0.00 1.35 0.01 94 1002.2
20260508101528 45 49 0.0 0.0 0.00 1.35 0.01 95 1002.2
20260508100032 44 49 0.0 3.0 0.00 1.35 0.01 94 1002.2
20260508094523 44 59 0.0 3.0 0.00 1.35 0.01 94 1001.9
20260508093018 44 139 0.0 1.0 0.00 1.35 0.01 94 1001.7
20260508091513 44 139 0.0 0.0 0.00 1.35 0.01 94 1001.8
20260508090011 44 139 0.0 1.0 0.00 1.35 0.01 94 1001.3
20260508084510 45 271 0.0 3.0 0.00 1.35 0.01 94 1001.5
20260508083010 45 5 0.0 2.0 0.00 1.35 0.01 94 1001.4
20260508081509 45 5 0.0 2.0 0.00 1.35 0.01 94 1001.2
20260508080010 46 5 1.0 3.0 0.00 1.35 0.01 94 1000.9
20260508074514 46 321 0.0 3.0 0.00 1.35 0.01 95 1000.9
20260508073006 47 339 2.0 7.0 0.00 1.35 0.01 95 1000.9
20260508071505 47 324 0.0 6.0 0.00 1.35 0.01 94 1001.0
20260508070003 47 277 2.0 9.0 0.00 1.35 0.01 95 1001.3
20260508064502 47 257 2.0 6.0 0.00 1.35 0.01 95 1001.0
20260508063059 46 360 0.0 5.0 0.00 1.35 0.01 95 1001.1
20260508061602 46 355 0.0 0.0 0.01 1.35 0.01 95 1001.0
20260508060101 46 355 0.0 0.0 0.01 1.35 0.01 95 1001.4
20260508054625 45 355 0.0 0.0 0.01 1.35 0.01 95 1001.1
20260508053105 44 355 0.0 0.0 0.01 1.35 0.01 94 1001.1
20260508051559 44 355 0.0 0.0 0.00 1.34 0.00 94 1001.3
20260508050056 44 355 0.0 0.0 0.00 1.34 0.00 94 1000.9
20260508044553 44 355 0.0 0.0 0.00 1.34 0.00 94 1001.0
20260508043055 45 355 0.0 0.0 0.00 1.34 0.00 94 1001.2
20260508041548 46 355 0.0 0.0 0.00 1.34 0.00 94 1001.3
20260508040054 46 355 0.0 2.0 0.00 1.34 0.00 94 1001.5
20260508034546 46 350 0.0 0.0 0.00 1.34 0.00 94 1001.5
20260508033042 46 350 0.0 0.0 0.00 1.34 0.00 94 1001.7
20260508031549 47 64 0.0 0.0 0.00 1.34 0.00 94 1002.0
20260508030034 47 64 0.0 0.0 0.00 1.34 0.00 94 1001.9
20260508024534 47 64 0.0 0.0 0.00 1.34 1.34 94 1002.1
20260508023034 47 63 0.0 0.0 0.00 1.34 1.34 94 1001.9
20260508021532 47 163 0.0 2.0 0.00 1.34 1.34 94 1001.9
20260508020033 47 163 0.0 6.0 0.00 1.34 1.34 94 1001.9
20260508014532 47 162 1.0 4.0 0.00 1.34 1.34 94 1002.0
20260508013032 47 194 0.0 4.0 0.00 1.34 1.34 94 1001.9
20260508011538 47 207 0.0 3.0 0.00 1.34 1.34 94 1001.7
20260508010038 47 227 0.0 0.0 0.00 1.34 1.34 94 1001.5
20260508004537 46 227 0.0 0.0 0.00 1.34 1.34 94 1001.8
20260508003029 46 227 0.0 2.0 0.00 1.34 1.34 94 1002.1
20260508001530 47 227 1.0 4.0 0.00 1.34 1.34 94 1002.0
20260508000028 47 113 1.0 3.0 0.00 1.34 1.34 94 1002.0
20260507234535 47 86 0.0 4.0 0.00 1.34 1.34 94 1002.0
20260507233033 46 226 0.0 4.0 0.00 1.34 1.34 94 1001.9
20260507231529 47 248 1.0 7.0 0.00 1.34 1.34 94 1002.0
20260507230026 47 199 2.0 8.0 0.00 1.34 1.34 94 1002.1
20260507224526 48 131 0.0 7.0 0.00 1.34 1.34 94 1002.1
20260507223026 48 143 4.0 8.0 0.00 1.34 1.34 94 1001.8
20260507221525 49 201 4.0 11.0 0.00 1.34 1.34 94 1001.9
20260507220024 49 198 4.0 11.0 0.00 1.34 1.34 94 1001.7
20260507214624 49 154 5.0 15.0 0.00 1.34 1.34 94 1002.0
20260507213022 51 153 7.0 21.0 0.00 1.34 1.34 94 1002.2
20260507211525 50 194 7.0 16.0 0.02 1.34 1.34 94 1001.9
20260507210018 50 167 4.0 15.0 0.06 1.34 1.34 94 1001.7
20260507204516 50 124 7.0 14.0 0.09 1.34 1.34 94 1001.2
20260507203014 50 165 4.0 10.0 0.16 1.34 1.34 94 1002.3
20260507201515 50 154 3.0 8.0 0.25 1.32 1.32 94 1003.1
20260507200008 50 174 4.0 8.0 0.36 1.28 1.28 94 1003.4
20260507194508 50 193 4.0 8.0 0.52 1.24 1.24 94 1003.4
20260507193005 49 204 3.0 8.0 0.61 1.17 1.17 94 1003.9
20260507191502 48 120 2.0 8.0 0.61 1.06 1.06 94 1004.4
20260507190101 48 214 1.0 10.0 0.66 0.91 0.91 94 1005.0
20260507184600 48 181 3.0 11.0 0.57 0.72 0.72 94 1004.9
20260507183100 47 144 4.0 11.0 0.45 0.56 0.56 94 1004.8
20260507181558 46 162 3.0 13.0 0.35 0.44 0.44 93 1004.6
20260507180106 47 205 7.0 17.0 0.16 0.24 0.24 93 1005.3
20260507174630 48 222 9.0 18.0 0.06 0.14 0.14 94 1004.3
20260507173056 48 167 6.0 24.0 0.04 0.13 0.13 93 1004.6
20260507171608 49 154 6.0 14.0 0.02 0.09 0.09 94 1005.0
20260507170051 49 234 8.0 15.0 0.05 0.09 0.09 93 1004.9
20260507164553 48 177 9.0 20.0 0.07 0.09 0.09 94 1005.4